Location: Dehesa de la Cepeda
(40.6574°N, 4.3013°W)
Time: 04:04:00
(UTC+00:00)

MOS 1-B Rocket - Pass Details

Date: 05 July 2020
Orbit: 890 x 1606 km, 99.1° (Epoch: 11 August)

Event Time Altitude Azimuth Distance (km) Brightness Sun altitude
Rises 22:37:22 0° 17° (NNE) 4,376 8.1 -22.2°
Reaches altitude 10° 22:40:23 10° 22° (NNE) 3,296 7.3 -22.4°
Maximum altitude 22:47:39 52° 98° (E) 1,386 4.5 -23.0°
Enters shadow 22:49:22 43° 141° (SE) 1,516 4.5 -23.1°
